sat.trackr.live / text

‹ back to catalog

STARLINK-35005

NORAD 65456 · 2025-194Y

PAYLOAD ACTIVE UNKNOWN

§ Identity

Operator
Country
US
Launch date
2025-09-03
Launch site
AFWTR
Launch vehicle
Mass (kg)
RCS (m²)

Purposes: comms

External: N2YO · Heavens-Above · Gunter

§ Orbital elements

Epoch: 2026-05-25T03:02:23.830080Z

Period
95.64 min
Inclination
97.4498°
Eccentricity
0.0002145
Mean motion
15.05646004 rev/d
Perigee alt
548.0 km
Apogee alt
551.0 km
Semi-major
6,927.7 km
B*
7.2739e-4
RAAN
359.4239°
Arg perigee
96.8047°
Mean anomaly
263.3424°
Rev number
4,115

§ Raw data

STARLINK-350051 65456U 25194Y   26145.12666470  .00010451  00000+0  72739-3 0  99982 65456  97.4498 359.4239 0002145  96.8047 263.3424 15.05646004 41156

JSON: /api/v1/satellites/65456 · /tle

For live sub-satellite position, see the globe view (requires WebGL).

§ Visibility from observer

Set your observer location to see the next 7 days of passes ≥ 10°. The values pass through the URL so the page stays shareable.

No JS? Fill the form by hand. The geolocation button needs JavaScript.